WB4ME Weather Reports


time (UTC)temp
C
wind
direction
speed
KPH
gust
KPH
rain 1hr
cm
rain 24hr
cm
rain mn
cm
humidity
%
barometer
mb
20260510214004 21 259 8.0 9.7 0.00 0.00 0.00 59 1027.3
20260510213005 20 218 8.0 11.3 0.00 0.00 0.00 65 1027.3
20260510212004 19 215 6.4 9.7 0.00 0.00 0.00 71 1027.3
20260510211004 18 197 3.2 14.5 0.00 0.00 0.00 71 1027.3
20260510204004 21 221 17.7 19.3 0.00 0.00 0.00 59 1027.3
20260510203004 22 257 3.2 14.5 0.00 0.00 0.00 55 1027.3
20260510202004 22 198 3.2 11.3 0.00 0.00 0.00 54 1027.3
20260510201004 22 235 19.3 19.3 0.00 0.00 0.00 52 1027.3
20260510200005 23 217 9.7 14.5 0.00 0.00 0.00 51 1027.3
20260510194004 23 191 3.2 22.5 0.00 0.00 0.00 51 1027.3
20260510193004 23 235 6.4 20.9 0.00 0.00 0.00 51 1027.3
20260510192007 23 240 9.7 19.3 0.00 0.00 0.00 50 1027.3
20260510191005 23 193 8.0 17.7 0.00 0.00 0.00 54 1027.3
20260510190005 22 213 8.0 20.9 0.00 0.00 0.00 51 1027.3
20260510185004 23 156 9.7 20.9 0.00 0.00 0.00 51 1027.3
20260510184005 23 237 14.5 20.9 0.00 0.00 0.00 51 1027.3
20260510180005 23 204 1.6 17.7 0.00 0.00 0.00 55 1027.3
20260510175004 23 226 4.8 12.9 0.00 0.00 0.00 54 1027.3
20260510174004 22 242 6.4 14.5 0.00 0.00 0.00 61 1027.3
20260510173004 22 214 4.8 14.5 0.00 0.00 0.00 61 1027.3
20260510172004 22 219 8.0 17.7 0.00 0.00 0.00 58 1027.3
20260510171004 21 119 1.6 14.5 0.00 0.00 0.00 61 1027.3
20260510170005 21 193 6.4 17.7 0.00 0.00 0.00 62 1027.3
20260510165004 21 204 0.0 14.5 0.00 0.00 0.00 58 1027.3
20260510164005 21 277 6.4 17.7 0.00 0.00 0.00 63 1027.3
20260510163005 21 192 6.4 17.7 0.00 0.00 0.00 62 1027.3
20260510162005 21 207 3.2 20.9 0.00 0.00 0.00 59 1027.3
20260510161004 21 222 12.9 19.3 0.00 0.00 0.00 59 1027.3
20260510160005 21 240 6.4 14.5 0.00 0.00 0.00 60 1027.3
20260510155004 21 285 0.0 12.9 0.00 0.00 0.00 60 1027.3
20260510154004 21 229 0.0 14.5 0.00 0.00 0.00 64 1027.3
20260510153005 20 238 1.6 9.7 0.00 0.00 0.00 66 1027.3
20260510152004 20 179 0.0 11.3 0.00 0.00 0.00 66 1027.3
20260510150004 18 250 4.8 14.5 0.00 0.00 0.00 71 1027.3
20260510145004 18 219 4.8 12.9 0.00 0.00 0.00 74 1027.3
20260510144004 18 210 6.4 19.3 0.00 0.00 0.00 73 1027.3
20260510143004 17 216 4.8 17.7 0.00 0.00 0.00 73 1027.3
20260510141004 6 106 410.4 410.4 0.00 0.00 0.00 93 1027.3
20260510140004 6 106 410.4 410.4 0.00 0.00 0.00 93 1027.3
20260510134005 6 106 410.4 410.4 0.00 0.00 0.00 93 1027.3
20260510133110 6 106 410.4 410.4 0.00 0.00 0.00 93 1027.3
20260510132115 6 106 410.4 410.4 0.00 0.00 0.00 93 1027.3
20260510130005 6 106 410.4 410.4 0.00 0.00 0.00 93 1027.3
20260510125005 6 106 410.4 410.4 0.00 0.00 0.00 93 1027.3
20260510124005 6 106 410.4 410.4 0.00 0.00 0.00 93 1027.3
20260510123109 6 106 410.4 410.4 0.00 0.00 0.00 93 1027.3
20260510122109 6 106 410.4 410.4 0.00 0.00 0.00 93 1027.3
20260510121004 6 106 410.4 410.4 0.00 0.00 0.00 93 1027.3
20260510120005 6 106 410.4 410.4 0.00 0.00 0.00 93 1027.3
20260510115310 6 106 410.4 410.4 0.00 0.00 0.00 93 1027.3
20260510114005 6 106 410.4 410.4 0.00 0.00 0.00 93 1027.3
20260510113109 6 106 410.4 410.4 0.00 0.00 0.00 93 1027.3
20260510111004 6 106 410.4 410.4 0.00 0.00 0.00 93 1027.3
20260510110005 6 106 410.4 410.4 0.00 0.00 0.00 93 1027.3
20260510105609 6 106 410.4 410.4 0.00 0.00 0.00 93 1027.3
20260510104004 6 106 410.4 410.4 0.00 0.00 0.00 93 1027.3
20260510102005 6 106 410.4 410.4 0.00 0.00 0.00 93 1027.3
20260510101410 6 106 410.4 410.4 0.00 0.00 0.00 93 1027.3
20260510095004 6 106 410.4 410.4 0.00 0.00 0.00 93 1027.3
20260510094013 6 106 410.4 410.4 0.00 0.00 0.00 93 1027.3
20260510093004 6 106 410.4 410.4 0.00 0.00 0.00 93 1027.3
20260510090004 7 105 0.0 0.0 0.00 0.00 0.00 94 1027.3
20260510085004 7 105 0.0 0.0 0.00 0.00 0.00 94 1027.3
20260510084005 7 105 0.0 0.0 0.00 0.00 0.00 94 1027.3
20260510083004 8 105 0.0 0.0 0.00 0.00 0.00 93 1027.3
20260510080004 8 105 0.0 0.0 0.00 0.00 0.00 93 1027.3
20260510075003 8 104 0.0 0.0 0.00 0.00 0.00 93 1027.3
20260510074003 8 105 0.0 0.0 0.00 0.00 0.00 93 1027.3
20260510073003 8 105 0.0 1.6 0.00 0.00 0.00 93 1027.3
20260510072004 8 92 0.0 0.0 0.00 0.00 0.00 93 1027.3
20260510071003 8 92 0.0 0.0 0.00 0.00 0.00 93 1027.3
20260510070004 9 92 0.0 0.0 0.00 0.00 0.00 93 1027.3
20260510065003 8 92 0.0 1.6 0.00 0.00 0.00 93 1027.3
20260510064004 9 139 0.0 0.0 0.00 0.00 0.00 93 1027.3
20260510062004 9 140 0.0 0.0 0.00 0.00 0.00 92 1027.3
20260510061004 10 140 0.0 0.0 0.00 0.00 0.00 92 1027.3
20260510060005 10 139 0.0 0.0 0.00 0.00 0.00 91 1027.3
20260510054004 10 139 0.0 0.0 0.00 0.00 0.00 91 1027.3
20260510052004 10 139 0.0 0.0 0.00 0.00 0.00 89 1027.3
20260510051004 11 139 0.0 0.0 0.00 0.00 0.00 90 1027.3
20260510050005 11 140 0.0 0.0 0.00 0.00 0.00 89 1027.3
20260510045005 11 140 0.0 0.0 0.00 0.00 0.00 88 1027.3
20260510044004 11 140 0.0 0.0 0.00 0.00 0.00 88 1027.3
20260510043004 11 140 0.0 0.0 0.00 0.00 0.00 86 1027.3
20260510041003 12 140 0.0 1.6 0.00 0.00 0.00 84 1027.3
20260510040006 12 139 0.0 0.0 0.00 0.00 0.00 84 1027.3
20260510034004 12 139 0.0 0.0 0.00 0.00 0.00 83 1027.3
20260510033004 13 139 0.0 0.0 0.00 0.00 0.00 82 1027.3
20260510032004 13 139 0.0 0.0 0.00 0.00 0.00 81 1027.3
20260510030004 13 139 0.0 0.0 0.00 0.00 0.00 79 1027.3
20260510025004 14 139 0.0 0.0 0.00 0.00 0.00 78 1027.3
20260510024006 14 139 0.0 1.6 0.00 0.00 0.00 76 1027.3
20260510023004 14 143 0.0 0.0 0.00 0.00 0.00 76 1027.3
20260510022004 14 127 0.0 0.0 0.00 0.00 0.00 75 1027.3
20260510021004 15 127 0.0 1.6 0.00 0.00 0.00 75 1027.3
20260510020005 15 127 0.0 0.0 0.00 0.00 0.00 75 1027.3
20260510015005 15 127 0.0 0.0 0.00 0.00 0.00 75 1027.3
20260510014004 15 127 0.0 0.0 0.00 0.00 0.00 74 1027.3
20260510013004 15 137 0.0 0.0 0.00 0.00 0.00 73 1027.3
20260510011004 16 222 0.0 0.0 0.00 0.00 0.00 67 1027.3
20260510010005 16 222 0.0 0.0 0.00 0.00 0.00 66 1027.3
20260510005005 17 223 0.0 1.6 0.00 0.00 0.00 65 1027.3
20260510004004 17 222 0.0 3.2 0.00 0.00 0.00 64 1027.3
20260510003004 17 225 1.6 6.4 0.00 0.00 0.00 62 1027.3
20260510002004 18 236 0.0 6.4 0.00 0.00 0.00 61 1027.3
20260510001004 18 250 0.0 4.8 0.00 0.00 0.00 61 1027.3
20260509235004 18 221 3.2 9.7 0.00 0.00 0.00 60 1027.3
20260509234004 19 222 3.2 11.3 0.00 0.00 0.00 59 1027.3
20260509233004 19 210 1.6 12.9 0.00 0.00 0.00 60 1027.3
20260509232003 19 217 4.8 12.9 0.00 0.00 0.00 58 1027.3
20260509231004 20 240 6.4 12.9 0.00 0.00 0.00 57 1027.3
20260509230004 20 211 6.4 11.3 0.00 0.00 0.00 57 1027.3
20260509225004 20 226 9.7 9.7 0.00 0.00 0.00 55 1027.3
20260509224004 20 231 3.2 14.5 0.00 0.00 0.00 54 1027.3
20260509223003 20 252 1.6 16.1 0.00 0.00 0.00 56 1027.3
20260509222004 20 205 9.7 17.7 0.00 0.00 0.00 55 1027.3
20260509221004 20 229 11.3 14.5 0.00 0.00 0.00 57 1027.3
20260509220006 21 208 1.6 14.5 0.00 0.00 0.00 54 1027.3